User: anonymous   Login
Location: Unspecified
(0.0000°N, 0.0000°E)
Time: 10:09:37
(UTC+00:00)
Language:

COSMOS 2463 - Orbit

View from above orbital plane
View from above orbital plane
View from above satellite
View from above satellite

Ground track
Ground track

The orbit data is extracted from the following two-line orbital elements,

1 36519U 10017A   20219.90902464 +.00000003 +00000-0 -12784-4 0  9991
2 36519 082.9596 021.9251 0035223 309.5411 050.2633 13.71446490514641
Epoch (UTC): 06 August 2020 21:48:59
Eccentricity: 0.0035223
inclination: 82.9596°
perigee height: 968 km
apogee height: 1020 km
right ascension of ascending node: 21.9251°
argument of perigee: 309.5411°
revolutions per day: 13.71446490
mean anomaly at epoch: 50.2633°
orbit number at epoch: 51464

The dashed part of the orbit path shows where the satellite is in the earth's shadow,  

DLR